Location: McFarlands Corners
(41.4117°N, 81.3382°W)
Time: 16:37:42
(UTC+00:00)

SR - Pass Details

Date: 25 February 2026
Orbit: 572 x 849 km, 66.7° (Epoch: 12 March)

Event Time Altitude Azimuth Distance (km) Brightness Sun altitude
Rises 08:06:08 0° 212° (SSW) 2,766 - -44.1°
Reaches altitude 10° 08:08:19 10° 214° (SSW) 1,881 - -43.8°
Maximum altitude 08:12:31 78° 301° (WNW) 610 - -43.1°
Drops below altitude 10° 08:16:57 10° 28° (NNE) 1,985 - -42.4°
Exits shadow 08:18:03 - 29° (NNE) 2,431 ? -42.2°
Sets 08:19:18 0° 29° (NNE) 2,933 ? -42.0°
